Terminal Aerodrome Forecast
Issued by NWS Charleston, WV

Current Version | Previous Version | Text Only | Print | Product List | Glossary Off
Versions: 1 2 3 4 5 6 7 8 9 10 11 12 13 14 15 16 17 18 19 20 21 22 23 24 25

534
FTUS41 KRLX 181138
TAFPKB
TAF
KPKB 181138Z 1812/1912 27008G15KT 6SM -RADZ OVC025
     FM181400 28009G15KT P6SM OVC015
     FM182000 27006KT P6SM BKN015=

USA.gov is the U.S. government's official web portal to all federal, state and local government web resources and services.